Location: Colonia Mina de C?rbuni
(46.1667°N, 22.7167°E)
Time: 07:17:54
(UTC+00:00)

Courier 1B - Pass Details

Date: 24 April 2024
Orbit: 962 x 1208 km, 28.3° (Epoch: 26 May)

Event Time Altitude Azimuth Distance (km) Brightness Sun altitude
Rises 01:00:01 0° 241° (WSW) 4,024 - -21.6°
Reaches altitude 10° 01:03:51 10° 224° (SW) 3,021 - -21.2°
Maximum altitude 01:08:36 18° 184° (S) 2,400 - -20.6°
Exits shadow 01:09:39 18° 173° (S) 2,420 9.2 -20.5°
Drops below altitude 10° 01:13:11 10° 143° (SE) 2,901 9.9 -20.1°
Sets 01:16:47 0° 126° (SE) 3,807 10.7 -19.7°
